Weather History for Seretse Khama, Botswana

Change the Weather History Date:

Tuesday, September 24, 2013

  Actual Average Record
Temperature  
Mean Temperature 74 °F -  
Max Temperature 89 °F 84 °F 98 °F (2005)
Min Temperature 60 °F 58 °F 48 °F (2012)
Cooling Degree Days 10    
Growing Degree Days 24 (Base 50)    
Moisture  
Dew Point 47 °F    
Average Humidity 39    
Maximum Humidity 68    
Minimum Humidity 21    
Precipitation  
Precipitation 0.00 in - - ()
Sea Level Pressure  
Sea Level Pressure 30.10 in    
Wind  
Wind Speed 5 mph ()    
Max Wind Speed 9 mph    
Max Gust Speed -    
Averages and records for this station are not official NWS values.
T = Trace of Precipitation, MM = Missing Value Source: Averaged Metar Reports

Daily Weather History Graph

Daily Weather History Graph

Search for Another Location

Airport:

Trip Planner

Search our weather history database for the weather conditions in past years. The results will help you decide how hot, cold, wet, or windy it might be!

Date:

Astronomy

Sep. 24, 2013 Rise Set
Actual Time 6:03 AM CAT 6:13 PM CAT
Civil Twilight 5:41 AM CAT 6:35 PM CAT
Nautical Twilight 5:14 AM CAT 7:02 PM CAT
Astronomical Twilight 4:48 AM CAT 7:29 PM CAT
Moon 10:59 PM CAT (9/24) 9:20 AM CAT (9/24)
Length of Visible Light 12h 54m
Length of Day
12h 09m
Waning Gibbous, 75% of the Moon is Illuminated
Sep 24
Waning Gibbous
Sep 27
Last Quarter
Oct 5
New
Oct 12
First Quarter
Oct 19
Full

Hourly Weather History & Observations

Time (CAT) Temp. Dew Point Humidity Pressure Visibility Wind Dir Wind Speed Gust Speed Precip Events Conditions
2:00 AM 64.4 °F 50.0 °F 59% 30.15 in - SE 5.8 mph - N/A   Clear
4:00 AM 60.8 °F 50.0 °F 68% 30.15 in - SE 5.8 mph - N/A   Clear
6:00 AM 60.8 °F 50.0 °F 68% 30.15 in - ENE 9.2 mph - N/A   Clear
7:00 AM 62.6 °F 50.0 °F 63% 30.15 in - ESE 5.8 mph - N/A   Clear
8:00 AM 64.4 °F 51.8 °F 64% 30.18 in - East 8.1 mph - N/A   Clear
9:00 AM 68.0 °F 51.8 °F 56% 30.18 in - NE 5.8 mph - N/A   Clear
10:00 AM 71.6 °F 50.0 °F 46% 30.18 in - NE 8.1 mph - N/A   Clear
11:00 AM 77.0 °F 48.2 °F 36% 30.15 in - NNE 6.9 mph - N/A   Clear
12:00 PM 80.6 °F 48.2 °F 32% 30.12 in - NE 5.8 mph - N/A   Clear
1:00 PM 84.2 °F 48.2 °F 29% 30.09 in - Variable 4.6 mph - N/A   Clear
2:00 PM 86.0 °F 46.4 °F 25% 30.06 in - Variable 4.6 mph - N/A   Clear
3:00 PM 87.8 °F 44.6 °F 22% 30.04 in - Variable 4.6 mph - N/A   Clear
4:00 PM 89.6 °F 44.6 °F 21% 30.04 in - NW 4.6 mph - N/A   Clear
5:00 PM 89.6 °F 44.6 °F 21% 30.01 in - West 4.6 mph - N/A   Clear
6:00 PM 87.8 °F 42.8 °F 21% 30.04 in - Variable 1.2 mph - N/A   Clear
7:00 PM 82.4 °F 44.6 °F 26% 30.04 in - NE 5.8 mph - N/A   Clear
8:00 PM 80.6 °F 44.6 °F 28% 30.06 in - NE 5.8 mph - N/A   Clear
9:00 PM 77.0 °F 44.6 °F 32% 30.06 in - NNE 3.5 mph - N/A   Clear
10:00 PM 75.2 °F 44.6 °F 34% 30.09 in - East 2.3 mph - N/A   Clear
11:00 PM 69.8 °F 42.8 °F 38% 30.09 in - Variable 1.2 mph - N/A   Clear